Year,Month,Day,Hour,Minute,Value (Times are PST for temperature in C)
2018,07,18,00,00,22.10
2018,07,18,00,01,22.10
2018,07,18,00,02,22.00
2018,07,18,00,03,22.00
2018,07,18,00,04,22.00
2018,07,18,00,05,21.90
2018,07,18,00,06,21.90
2018,07,18,00,07,21.90
2018,07,18,00,08,21.80
2018,07,18,00,09,21.80
2018,07,18,00,10,21.80
2018,07,18,00,11,21.80
2018,07,18,00,12,21.80
2018,07,18,00,13,21.70
2018,07,18,00,14,21.70
2018,07,18,00,15,21.70
2018,07,18,00,16,21.60
2018,07,18,00,17,21.60
2018,07,18,00,18,21.60
2018,07,18,00,19,21.50
2018,07,18,00,20,21.50
2018,07,18,00,21,21.50
2018,07,18,00,22,21.40
2018,07,18,00,23,21.40
2018,07,18,00,24,21.40
2018,07,18,00,25,21.40
2018,07,18,00,26,21.40
2018,07,18,00,27,21.30
2018,07,18,00,28,21.30
2018,07,18,00,29,21.30
2018,07,18,00,30,21.30
2018,07,18,00,31,21.30
2018,07,18,00,32,21.30
2018,07,18,00,33,21.30
2018,07,18,00,34,21.30
2018,07,18,00,35,21.30
2018,07,18,00,36,21.20
2018,07,18,00,37,21.20
2018,07,18,00,38,21.20
2018,07,18,00,39,21.20
2018,07,18,00,40,21.20
2018,07,18,00,41,21.20
2018,07,18,00,42,21.20
2018,07,18,00,43,21.20
2018,07,18,00,44,21.20
2018,07,18,00,45,21.10
2018,07,18,00,46,21.10
2018,07,18,00,47,21.10
2018,07,18,00,48,21.10
2018,07,18,00,49,21.10
2018,07,18,00,50,21.10
2018,07,18,00,51,21.10
2018,07,18,00,52,21.00
2018,07,18,00,53,21.00
2018,07,18,00,54,21.00
2018,07,18,00,55,21.00
2018,07,18,00,56,21.00
2018,07,18,00,57,21.00
2018,07,18,00,58,21.00
2018,07,18,00,59,21.00
2018,07,18,01,00,21.00
2018,07,18,01,01,21.00
2018,07,18,01,02,21.00
2018,07,18,01,03,21.00
2018,07,18,01,04,21.00
2018,07,18,01,05,21.00
2018,07,18,01,06,21.00
2018,07,18,01,07,21.00
2018,07,18,01,08,21.10
2018,07,18,01,09,21.10
2018,07,18,01,10,21.10
2018,07,18,01,11,21.10
2018,07,18,01,12,21.10
2018,07,18,01,13,21.20
2018,07,18,01,14,21.20
2018,07,18,01,15,21.20
2018,07,18,01,16,21.20
2018,07,18,01,17,21.20
2018,07,18,01,18,21.20
2018,07,18,01,19,21.30
2018,07,18,01,20,21.30
2018,07,18,01,21,21.30
2018,07,18,01,22,21.30
2018,07,18,01,23,21.30
2018,07,18,01,24,21.30
2018,07,18,01,25,21.30
2018,07,18,01,26,21.30
2018,07,18,01,27,21.30
2018,07,18,01,28,21.30
2018,07,18,01,29,21.30
2018,07,18,01,30,21.30
2018,07,18,01,31,21.30
2018,07,18,01,32,21.30
2018,07,18,01,33,21.30
2018,07,18,01,34,21.30
2018,07,18,01,35,21.30
2018,07,18,01,36,21.30
2018,07,18,01,37,21.30
2018,07,18,01,38,21.30
2018,07,18,01,39,21.30
2018,07,18,01,40,21.20
2018,07,18,01,41,21.20
2018,07,18,01,42,21.20
2018,07,18,01,43,21.20
2018,07,18,01,44,21.20
2018,07,18,01,45,21.10
2018,07,18,01,46,21.10
2018,07,18,01,47,21.10
2018,07,18,01,48,21.10
2018,07,18,01,49,21.00
2018,07,18,01,50,21.00
2018,07,18,01,51,21.00
2018,07,18,01,52,20.90
2018,07,18,01,53,20.90
2018,07,18,01,54,20.90
2018,07,18,01,55,20.80
2018,07,18,01,56,20.80
2018,07,18,01,57,20.80
2018,07,18,01,58,20.80
2018,07,18,01,59,20.70
2018,07,18,02,00,20.70
2018,07,18,02,01,20.70
2018,07,18,02,02,20.60
2018,07,18,02,03,20.60
2018,07,18,02,04,20.50
2018,07,18,02,05,20.50
2018,07,18,02,06,20.40
2018,07,18,02,07,20.40
2018,07,18,02,08,20.30
2018,07,18,02,09,20.30
2018,07,18,02,10,20.30
2018,07,18,02,11,20.20
2018,07,18,02,12,20.20
2018,07,18,02,13,20.20
2018,07,18,02,14,20.10
2018,07,18,02,15,20.10
2018,07,18,02,16,20.00
2018,07,18,02,17,20.00
2018,07,18,02,18,19.90
2018,07,18,02,19,19.90
2018,07,18,02,20,19.90
2018,07,18,02,21,19.80
2018,07,18,02,22,19.80
2018,07,18,02,23,19.80
2018,07,18,02,24,19.70
2018,07,18,02,25,19.70
2018,07,18,02,26,19.70
2018,07,18,02,27,19.60
2018,07,18,02,28,19.60
2018,07,18,02,29,19.60
2018,07,18,02,30,19.50
2018,07,18,02,31,19.50
2018,07,18,02,32,19.40
2018,07,18,02,33,19.40
2018,07,18,02,34,19.40
2018,07,18,02,35,19.30
2018,07,18,02,36,19.30
2018,07,18,02,37,19.30
2018,07,18,02,38,19.30
2018,07,18,02,39,19.20
2018,07,18,02,40,19.20
2018,07,18,02,41,19.20
2018,07,18,02,42,19.10
2018,07,18,02,43,19.10
2018,07,18,02,44,19.10
2018,07,18,02,45,19.00
2018,07,18,02,46,19.00
2018,07,18,02,47,18.90
2018,07,18,02,48,18.90
2018,07,18,02,49,18.90
2018,07,18,02,50,18.90
2018,07,18,02,51,18.80
2018,07,18,02,52,18.80
2018,07,18,02,53,18.80
2018,07,18,02,54,18.70
2018,07,18,02,55,18.70
2018,07,18,02,56,18.70
2018,07,18,02,57,18.70
2018,07,18,02,58,18.70
2018,07,18,02,59,18.70
2018,07,18,03,00,18.70
2018,07,18,03,01,18.70
2018,07,18,03,02,18.70
2018,07,18,03,03,18.70
2018,07,18,03,04,18.70
2018,07,18,03,05,18.70
2018,07,18,03,06,18.60
2018,07,18,03,07,18.60
2018,07,18,03,08,18.60
2018,07,18,03,09,18.60
2018,07,18,03,10,18.60
2018,07,18,03,11,18.60
2018,07,18,03,12,18.50
2018,07,18,03,13,18.50
2018,07,18,03,14,18.50
2018,07,18,03,15,18.40
2018,07,18,03,16,18.40
2018,07,18,03,17,18.40
2018,07,18,03,18,18.40
2018,07,18,03,19,18.40
2018,07,18,03,20,18.30
2018,07,18,03,21,18.30
2018,07,18,03,22,18.30
2018,07,18,03,23,18.30
2018,07,18,03,24,18.20
2018,07,18,03,25,18.20
2018,07,18,03,26,18.20
2018,07,18,03,27,18.20
2018,07,18,03,28,18.20
2018,07,18,03,29,18.20
2018,07,18,03,30,18.20
2018,07,18,03,31,18.20
2018,07,18,03,32,18.20
2018,07,18,03,33,18.20
2018,07,18,03,34,18.20
2018,07,18,03,35,18.20
2018,07,18,03,36,18.10
2018,07,18,03,37,18.10
2018,07,18,03,38,18.10
2018,07,18,03,39,18.10
2018,07,18,03,40,18.10
2018,07,18,03,41,18.10
2018,07,18,03,42,18.00
2018,07,18,03,43,18.00
2018,07,18,03,44,18.00
2018,07,18,03,45,18.00
2018,07,18,03,46,18.00
2018,07,18,03,47,18.00
2018,07,18,03,48,18.00
2018,07,18,03,49,18.00
2018,07,18,03,50,18.00
2018,07,18,03,51,17.90
2018,07,18,03,52,17.90
2018,07,18,03,53,17.90
2018,07,18,03,54,17.90
2018,07,18,03,55,17.90
2018,07,18,03,56,17.90
2018,07,18,03,57,17.90
2018,07,18,03,58,17.90
2018,07,18,03,59,17.90
2018,07,18,04,00,17.90
2018,07,18,04,01,17.90
2018,07,18,04,02,17.90
2018,07,18,04,03,17.90
2018,07,18,04,04,17.90
2018,07,18,04,05,17.90
2018,07,18,04,06,17.90
2018,07,18,04,07,17.90
2018,07,18,04,08,17.90
2018,07,18,04,09,17.90
2018,07,18,04,10,17.90
2018,07,18,04,11,17.90
2018,07,18,04,12,17.90
2018,07,18,04,13,17.90
2018,07,18,04,14,17.90
2018,07,18,04,15,17.90
2018,07,18,04,16,17.90
2018,07,18,04,17,17.90
2018,07,18,04,18,17.90
2018,07,18,04,19,17.90
2018,07,18,04,20,17.90
2018,07,18,04,21,17.90
2018,07,18,04,22,17.90
2018,07,18,04,23,18.00
2018,07,18,04,24,17.90
2018,07,18,04,25,17.90
2018,07,18,04,26,17.90
2018,07,18,04,27,17.90
2018,07,18,04,28,17.90
2018,07,18,04,29,17.90
2018,07,18,04,30,17.90
2018,07,18,04,31,17.90
2018,07,18,04,32,17.90
2018,07,18,04,33,17.90
2018,07,18,04,34,17.90
2018,07,18,04,35,17.90
2018,07,18,04,36,17.90
2018,07,18,04,37,17.90
2018,07,18,04,38,17.80
2018,07,18,04,39,17.80
2018,07,18,04,40,17.80
2018,07,18,04,41,17.80
2018,07,18,04,42,17.80
2018,07,18,04,43,17.80
2018,07,18,04,44,17.80
2018,07,18,04,45,17.70
2018,07,18,04,46,17.70
2018,07,18,04,47,17.70
2018,07,18,04,48,17.70
2018,07,18,04,49,17.70
2018,07,18,04,50,17.70
2018,07,18,04,51,17.70
2018,07,18,04,52,17.70
2018,07,18,04,53,17.70
2018,07,18,04,54,17.70
2018,07,18,04,55,17.70
2018,07,18,04,56,17.70
2018,07,18,04,57,17.70
2018,07,18,04,58,17.70
2018,07,18,04,59,17.70
2018,07,18,05,00,17.70
2018,07,18,05,01,17.60
2018,07,18,05,02,17.60
2018,07,18,05,03,17.60
2018,07,18,05,04,17.60
2018,07,18,05,05,17.60
2018,07,18,05,06,17.60
2018,07,18,05,07,17.50
2018,07,18,05,08,17.50
2018,07,18,05,09,17.50
2018,07,18,05,10,17.40
2018,07,18,05,11,17.40
2018,07,18,05,12,17.40
2018,07,18,05,13,17.40
2018,07,18,05,14,17.40
2018,07,18,05,15,17.40
2018,07,18,05,16,17.30
2018,07,18,05,17,17.30
2018,07,18,05,18,17.30
2018,07,18,05,19,17.30
2018,07,18,05,20,17.20
2018,07,18,05,21,17.20
2018,07,18,05,22,17.20
2018,07,18,05,23,17.10
2018,07,18,05,24,17.10
2018,07,18,05,25,17.00
2018,07,18,05,26,17.00
2018,07,18,05,27,17.00
2018,07,18,05,28,16.90
2018,07,18,05,29,16.90
2018,07,18,05,30,16.90
2018,07,18,05,31,16.90
2018,07,18,05,32,16.90
2018,07,18,05,33,16.80
2018,07,18,05,34,16.80
2018,07,18,05,35,16.80
2018,07,18,05,36,16.80
2018,07,18,05,37,16.80
2018,07,18,05,38,16.80
2018,07,18,05,39,16.70
2018,07,18,05,40,16.70
2018,07,18,05,41,16.70
2018,07,18,05,42,16.70
2018,07,18,05,43,16.70
2018,07,18,05,44,16.70
2018,07,18,05,45,16.70
2018,07,18,05,46,16.70
2018,07,18,05,47,16.70
2018,07,18,05,48,16.70
2018,07,18,05,49,16.70
2018,07,18,05,50,16.70
2018,07,18,05,51,16.70
2018,07,18,05,52,16.60
2018,07,18,05,53,16.60
2018,07,18,05,54,16.60
2018,07,18,05,55,16.70
2018,07,18,05,56,16.70
2018,07,18,05,57,16.70
2018,07,18,05,58,16.70
2018,07,18,05,59,16.70
2018,07,18,06,00,16.70
2018,07,18,06,01,16.70
2018,07,18,06,02,16.70
2018,07,18,06,03,16.70
2018,07,18,06,04,16.70
2018,07,18,06,05,16.70
2018,07,18,06,06,16.70
2018,07,18,06,07,16.70
2018,07,18,06,08,16.70
2018,07,18,06,09,16.70
2018,07,18,06,10,16.70
2018,07,18,06,11,16.70
2018,07,18,06,12,16.80
2018,07,18,06,13,16.80
2018,07,18,06,14,16.80
2018,07,18,06,15,16.80
2018,07,18,06,16,16.70
2018,07,18,06,17,16.70
2018,07,18,06,18,16.70
2018,07,18,06,19,16.70
2018,07,18,06,20,16.80
2018,07,18,06,21,16.80
2018,07,18,06,22,16.80
2018,07,18,06,23,16.80
2018,07,18,06,24,16.80
2018,07,18,06,25,16.80
2018,07,18,06,26,16.80
2018,07,18,06,27,16.80
2018,07,18,06,28,16.80
2018,07,18,06,29,16.80
2018,07,18,06,30,16.80
2018,07,18,06,31,16.90
2018,07,18,06,32,16.90
2018,07,18,06,33,17.00
2018,07,18,06,34,17.00
2018,07,18,06,35,17.10
2018,07,18,06,36,17.00
2018,07,18,06,37,16.90
2018,07,18,06,38,16.90
2018,07,18,06,39,16.80
2018,07,18,06,40,16.80
2018,07,18,06,41,16.80
2018,07,18,06,42,16.80
2018,07,18,06,43,16.80
2018,07,18,06,44,16.80
2018,07,18,06,45,16.80
2018,07,18,06,46,16.80
2018,07,18,06,47,16.90
2018,07,18,06,48,17.00
2018,07,18,06,49,17.10
2018,07,18,06,50,17.20
2018,07,18,06,51,17.30
2018,07,18,06,52,17.30
2018,07,18,06,53,17.40
2018,07,18,06,54,17.50
2018,07,18,06,55,17.50
2018,07,18,06,56,17.60
2018,07,18,06,57,17.70
2018,07,18,06,58,17.70
2018,07,18,06,59,17.80
2018,07,18,07,00,17.80
2018,07,18,07,01,17.80
2018,07,18,07,02,17.80
2018,07,18,07,03,17.90
2018,07,18,07,04,17.90
2018,07,18,07,05,17.90
2018,07,18,07,06,17.90
2018,07,18,07,07,17.90
2018,07,18,07,08,17.90
2018,07,18,07,09,17.90
2018,07,18,07,10,18.00
2018,07,18,07,11,18.00
2018,07,18,07,12,18.00
2018,07,18,07,13,18.10
2018,07,18,07,14,18.10
2018,07,18,07,15,18.10
2018,07,18,07,16,18.20
2018,07,18,07,17,18.20
2018,07,18,07,18,18.20
2018,07,18,07,19,18.20
2018,07,18,07,20,18.20
2018,07,18,07,21,18.30
2018,07,18,07,22,18.20
2018,07,18,07,23,18.30
2018,07,18,07,24,18.30
2018,07,18,07,25,18.30
2018,07,18,07,26,18.30
2018,07,18,07,27,18.30
2018,07,18,07,28,18.40
2018,07,18,07,29,18.40
2018,07,18,07,30,18.40
2018,07,18,07,31,18.40
2018,07,18,07,32,18.40
2018,07,18,07,33,18.50
2018,07,18,07,34,18.50
2018,07,18,07,35,18.50
2018,07,18,07,36,18.50
2018,07,18,07,37,18.50
2018,07,18,07,38,18.60
2018,07,18,07,39,18.60
2018,07,18,07,40,18.60
2018,07,18,07,41,18.60
2018,07,18,07,42,18.70
2018,07,18,07,43,18.70
2018,07,18,07,44,18.80
2018,07,18,07,45,18.80
2018,07,18,07,46,18.90
2018,07,18,07,47,18.90
2018,07,18,07,48,19.00
2018,07,18,07,49,19.00
2018,07,18,07,50,19.00
2018,07,18,07,51,19.10
2018,07,18,07,52,19.10
2018,07,18,07,53,19.20
2018,07,18,07,54,19.20
2018,07,18,07,55,19.30
2018,07,18,07,56,19.50
2018,07,18,07,57,19.60
2018,07,18,07,58,19.80
2018,07,18,07,59,20.00
2018,07,18,08,00,20.20
2018,07,18,08,01,20.40
2018,07,18,08,02,20.50
2018,07,18,08,03,20.50
2018,07,18,08,04,20.60
2018,07,18,08,05,20.50
2018,07,18,08,06,20.40
2018,07,18,08,07,20.50
2018,07,18,08,08,20.50
2018,07,18,08,09,20.60
2018,07,18,08,10,20.60
2018,07,18,08,11,20.60
2018,07,18,08,12,20.60
2018,07,18,08,13,20.50
2018,07,18,08,14,20.50
2018,07,18,08,15,20.60
2018,07,18,08,16,20.50
2018,07,18,08,17,20.50
2018,07,18,08,18,20.50
2018,07,18,08,19,20.50
2018,07,18,08,20,20.60
2018,07,18,08,21,20.70
2018,07,18,08,22,20.90
2018,07,18,08,23,20.90
2018,07,18,08,24,20.90
2018,07,18,08,25,20.80
2018,07,18,08,26,20.70
2018,07,18,08,27,20.70
2018,07,18,08,28,20.80
2018,07,18,08,29,20.90
2018,07,18,08,30,21.10
2018,07,18,08,31,21.00
2018,07,18,08,32,21.00
2018,07,18,08,33,20.90
2018,07,18,08,34,20.90
2018,07,18,08,35,20.80
2018,07,18,08,36,20.70
2018,07,18,08,37,20.60
2018,07,18,08,38,20.70
2018,07,18,08,39,20.70
2018,07,18,08,40,20.70
2018,07,18,08,41,20.70
2018,07,18,08,42,20.70
2018,07,18,08,43,20.80
2018,07,18,08,44,20.80
2018,07,18,08,45,20.80
2018,07,18,08,46,20.80
2018,07,18,08,47,20.70
2018,07,18,08,48,20.70
2018,07,18,08,49,20.70
2018,07,18,08,50,20.70
2018,07,18,08,51,20.80
2018,07,18,08,52,20.90
2018,07,18,08,53,21.00
2018,07,18,08,54,21.00
2018,07,18,08,55,21.10
2018,07,18,08,56,21.10
2018,07,18,08,57,21.20
2018,07,18,08,58,21.20
2018,07,18,08,59,21.30
2018,07,18,09,00,21.30
2018,07,18,09,01,21.30
2018,07,18,09,02,21.30
2018,07,18,09,03,21.20
2018,07,18,09,04,21.10
2018,07,18,09,05,21.00
2018,07,18,09,06,21.00
2018,07,18,09,07,20.90
2018,07,18,09,08,20.90
2018,07,18,09,09,20.80
2018,07,18,09,10,20.80
2018,07,18,09,11,20.80
2018,07,18,09,12,20.80
2018,07,18,09,13,20.90
2018,07,18,09,14,21.00
2018,07,18,09,15,21.10
2018,07,18,09,16,21.10
2018,07,18,09,17,21.10
2018,07,18,09,18,21.10
2018,07,18,09,19,21.10
2018,07,18,09,20,21.10
2018,07,18,09,21,21.10
2018,07,18,09,22,21.20
2018,07,18,09,23,21.10
2018,07,18,09,24,21.10
2018,07,18,09,25,21.10
2018,07,18,09,26,21.10
2018,07,18,09,27,21.00
2018,07,18,09,28,20.90
2018,07,18,09,29,20.90
2018,07,18,09,30,20.90
2018,07,18,09,31,20.90
2018,07,18,09,32,21.00
2018,07,18,09,33,21.10
2018,07,18,09,34,21.20
2018,07,18,09,35,21.20
2018,07,18,09,36,21.20
2018,07,18,09,37,21.20
2018,07,18,09,38,21.20
2018,07,18,09,39,21.10
2018,07,18,09,40,21.20
2018,07,18,09,41,21.20
2018,07,18,09,42,21.20
2018,07,18,09,43,21.20
2018,07,18,09,44,21.30
2018,07,18,09,45,21.30
2018,07,18,09,46,21.40
2018,07,18,09,47,21.50
2018,07,18,09,48,21.60
2018,07,18,09,49,21.70
2018,07,18,09,50,21.70
2018,07,18,09,51,21.80
2018,07,18,09,52,21.80
2018,07,18,09,53,21.80
2018,07,18,09,54,21.80
2018,07,18,09,55,21.90
2018,07,18,09,56,21.80
2018,07,18,09,57,21.80
2018,07,18,09,58,21.80
2018,07,18,09,59,21.70
2018,07,18,10,00,21.50
2018,07,18,10,01,21.50
2018,07,18,10,02,21.40
2018,07,18,10,03,21.40
2018,07,18,10,04,21.40
2018,07,18,10,05,21.50
2018,07,18,10,06,21.60
2018,07,18,10,07,21.80
2018,07,18,10,08,21.80
2018,07,18,10,09,21.90
2018,07,18,10,10,21.90
2018,07,18,10,11,22.00
2018,07,18,10,12,22.10
2018,07,18,10,13,22.30
2018,07,18,10,14,22.40
2018,07,18,10,15,22.40
2018,07,18,10,16,22.40
2018,07,18,10,17,22.40
2018,07,18,10,18,22.30
2018,07,18,10,19,22.20
2018,07,18,10,20,22.10
2018,07,18,10,21,22.00
2018,07,18,10,22,22.00
2018,07,18,10,23,21.90
2018,07,18,10,24,21.90
2018,07,18,10,25,21.90
2018,07,18,10,26,22.00
2018,07,18,10,27,22.10
2018,07,18,10,28,22.20
2018,07,18,10,29,22.30
2018,07,18,10,30,22.30
2018,07,18,10,31,22.30
2018,07,18,10,32,22.40
2018,07,18,10,33,22.40
2018,07,18,10,34,22.40
2018,07,18,10,35,22.40
2018,07,18,10,36,22.40
2018,07,18,10,37,22.20
2018,07,18,10,38,22.10
2018,07,18,10,39,21.90
2018,07,18,10,40,21.70
2018,07,18,10,41,21.50
2018,07,18,10,42,21.40
2018,07,18,10,43,21.30
2018,07,18,10,44,21.50
2018,07,18,10,45,21.50
2018,07,18,10,46,21.50
2018,07,18,10,47,21.50
2018,07,18,10,48,21.40
2018,07,18,10,49,21.30
2018,07,18,10,50,21.20
2018,07,18,10,51,21.10
2018,07,18,10,52,21.00
2018,07,18,10,53,21.00
2018,07,18,10,54,20.90
2018,07,18,10,55,21.00
2018,07,18,10,56,20.90
2018,07,18,10,57,20.80
2018,07,18,10,58,20.70
2018,07,18,10,59,20.60
2018,07,18,11,00,20.40
2018,07,18,11,01,20.30
2018,07,18,11,02,20.10
2018,07,18,11,03,20.00
2018,07,18,11,04,19.90
2018,07,18,11,05,19.80
2018,07,18,11,06,19.80
2018,07,18,11,07,19.80
2018,07,18,11,08,19.70
2018,07,18,11,09,19.70
2018,07,18,11,10,19.80
2018,07,18,11,11,19.90
2018,07,18,11,12,19.90
2018,07,18,11,13,20.00
2018,07,18,11,14,20.10
2018,07,18,11,15,20.30
2018,07,18,11,16,20.50
2018,07,18,11,17,20.80
2018,07,18,11,18,21.00
2018,07,18,11,19,21.10
2018,07,18,11,20,21.30
2018,07,18,11,21,21.50
2018,07,18,11,22,21.60
2018,07,18,11,23,21.60
2018,07,18,11,24,21.70
2018,07,18,11,25,21.80
2018,07,18,11,26,21.80
2018,07,18,11,27,21.80
2018,07,18,11,28,21.80
2018,07,18,11,29,21.80
2018,07,18,11,30,21.70
2018,07,18,11,31,21.50
2018,07,18,11,32,21.30
2018,07,18,11,33,21.00
2018,07,18,11,34,20.80
2018,07,18,11,35,20.50
2018,07,18,11,36,20.30
2018,07,18,11,37,20.20
2018,07,18,11,38,20.10
2018,07,18,11,39,20.10
2018,07,18,11,40,20.20
2018,07,18,11,41,20.30
2018,07,18,11,42,20.40
2018,07,18,11,43,20.40
2018,07,18,11,44,20.40
2018,07,18,11,45,20.30
2018,07,18,11,46,20.30
2018,07,18,11,47,20.30
2018,07,18,11,48,20.50
2018,07,18,11,49,20.60
2018,07,18,11,50,20.60
2018,07,18,11,51,20.60
2018,07,18,11,52,20.60
2018,07,18,11,53,20.70
2018,07,18,11,54,20.60
2018,07,18,11,55,20.70
2018,07,18,11,56,20.70
2018,07,18,11,57,20.70
2018,07,18,11,58,20.70
2018,07,18,11,59,20.60
2018,07,18,12,00,20.50
2018,07,18,12,01,20.30
2018,07,18,12,02,20.30
2018,07,18,12,03,20.30
2018,07,18,12,04,20.20
2018,07,18,12,05,20.20
2018,07,18,12,06,20.20
2018,07,18,12,07,20.30
2018,07,18,12,08,20.30
2018,07,18,12,09,20.20
2018,07,18,12,10,20.20
2018,07,18,12,11,20.20
2018,07,18,12,12,20.20
2018,07,18,12,13,20.10
2018,07,18,12,14,20.00
2018,07,18,12,15,19.90
2018,07,18,12,16,19.90
2018,07,18,12,17,19.90
2018,07,18,12,18,19.90
2018,07,18,12,19,19.90
2018,07,18,12,20,19.90
2018,07,18,12,21,20.00
2018,07,18,12,22,20.20
2018,07,18,12,23,20.30
2018,07,18,12,24,20.40
2018,07,18,12,25,20.40
2018,07,18,12,26,20.40
2018,07,18,12,27,20.50
2018,07,18,12,28,20.50
2018,07,18,12,29,20.50
2018,07,18,12,30,20.70
2018,07,18,12,31,20.80
2018,07,18,12,32,20.80
2018,07,18,12,33,20.80
2018,07,18,12,34,20.80
2018,07,18,12,35,20.80
2018,07,18,12,36,20.80
2018,07,18,12,37,20.80
2018,07,18,12,38,20.80
2018,07,18,12,39,20.80
2018,07,18,12,40,20.80
2018,07,18,12,41,20.80
2018,07,18,12,42,20.90
2018,07,18,12,43,21.00
2018,07,18,12,44,21.10
2018,07,18,12,45,21.10
2018,07,18,12,46,21.10
2018,07,18,12,47,21.10
2018,07,18,12,48,21.10
2018,07,18,12,49,21.00
2018,07,18,12,50,20.90
2018,07,18,12,51,20.80
2018,07,18,12,52,20.80
2018,07,18,12,53,20.80
2018,07,18,12,54,20.70
2018,07,18,12,55,20.70
2018,07,18,12,56,20.70
2018,07,18,12,57,20.80
2018,07,18,12,58,20.90
2018,07,18,12,59,21.00
2018,07,18,13,00,21.10
2018,07,18,13,01,21.20
2018,07,18,13,02,21.20
2018,07,18,13,03,21.20
2018,07,18,13,04,21.30
2018,07,18,13,05,21.30
2018,07,18,13,06,21.20
2018,07,18,13,07,21.20
2018,07,18,13,08,21.30
2018,07,18,13,09,21.20
2018,07,18,13,10,21.30
2018,07,18,13,11,21.30
2018,07,18,13,12,21.30
2018,07,18,13,13,21.40
2018,07,18,13,14,21.50
2018,07,18,13,15,21.50
2018,07,18,13,16,21.50
2018,07,18,13,17,21.50
2018,07,18,13,18,21.40
2018,07,18,13,19,21.40
2018,07,18,13,20,21.40
2018,07,18,13,21,21.40
2018,07,18,13,22,21.40
2018,07,18,13,23,21.40
2018,07,18,13,24,21.40
2018,07,18,13,25,21.30
2018,07,18,13,26,21.30
2018,07,18,13,27,21.30
2018,07,18,13,28,21.30
2018,07,18,13,29,21.40
2018,07,18,13,30,21.60
2018,07,18,13,31,21.60
2018,07,18,13,32,21.60
2018,07,18,13,33,21.70
2018,07,18,13,34,21.70
2018,07,18,13,35,21.70
2018,07,18,13,36,21.60
2018,07,18,13,37,21.60
2018,07,18,13,38,21.50
2018,07,18,13,39,21.40
2018,07,18,13,40,21.40
2018,07,18,13,41,21.30
2018,07,18,13,42,21.30
2018,07,18,13,43,21.30
2018,07,18,13,44,21.30
2018,07,18,13,45,21.30
2018,07,18,13,46,21.30
2018,07,18,13,47,21.40
2018,07,18,13,48,21.40
2018,07,18,13,49,21.50
2018,07,18,13,50,21.60
2018,07,18,13,51,21.70
2018,07,18,13,52,21.70
2018,07,18,13,53,21.80
2018,07,18,13,54,21.70
2018,07,18,13,55,21.70
2018,07,18,13,56,21.70
2018,07,18,13,57,21.70
2018,07,18,13,58,21.70
2018,07,18,13,59,21.80
2018,07,18,14,00,21.80
2018,07,18,14,01,21.80
2018,07,18,14,02,21.80
2018,07,18,14,03,21.90
2018,07,18,14,04,21.90
2018,07,18,14,05,21.90
2018,07,18,14,06,21.90
2018,07,18,14,07,21.90
2018,07,18,14,08,21.80
2018,07,18,14,09,21.80
2018,07,18,14,10,21.70
2018,07,18,14,11,21.60
2018,07,18,14,12,21.50
2018,07,18,14,13,21.60
2018,07,18,14,14,21.60
2018,07,18,14,15,21.50
2018,07,18,14,16,21.50
2018,07,18,14,17,21.40
2018,07,18,14,18,21.40
2018,07,18,14,19,21.40
2018,07,18,14,20,21.50
2018,07,18,14,21,21.50
2018,07,18,14,22,21.60
2018,07,18,14,23,21.60
2018,07,18,14,24,21.60
2018,07,18,14,25,21.60
2018,07,18,14,26,21.70
2018,07,18,14,27,21.80
2018,07,18,14,28,21.80
2018,07,18,14,29,21.90
2018,07,18,14,30,21.90
2018,07,18,14,31,22.00
2018,07,18,14,32,22.00
2018,07,18,14,33,22.10
2018,07,18,14,34,22.10
2018,07,18,14,35,22.10
2018,07,18,14,36,22.20
2018,07,18,14,37,22.20
2018,07,18,14,38,22.10
2018,07,18,14,39,22.00
2018,07,18,14,40,21.90
2018,07,18,14,41,21.80
2018,07,18,14,42,21.80
2018,07,18,14,43,21.80
2018,07,18,14,44,21.80
2018,07,18,14,45,21.80
2018,07,18,14,46,21.80
2018,07,18,14,47,21.80
2018,07,18,14,48,21.90
2018,07,18,14,49,21.90
2018,07,18,14,50,21.90
2018,07,18,14,51,22.00
2018,07,18,14,52,22.00
2018,07,18,14,53,22.10
2018,07,18,14,54,22.20
2018,07,18,14,55,22.20
2018,07,18,14,56,22.20
2018,07,18,14,57,22.20
2018,07,18,14,58,22.20
2018,07,18,14,59,22.20
2018,07,18,15,00,22.20
2018,07,18,15,01,22.30
2018,07,18,15,02,22.30
2018,07,18,15,03,22.30
2018,07,18,15,04,22.30
2018,07,18,15,05,22.30
2018,07,18,15,06,22.20
2018,07,18,15,07,22.20
2018,07,18,15,08,22.10
2018,07,18,15,09,22.10
2018,07,18,15,10,22.20
2018,07,18,15,11,22.20
2018,07,18,15,12,22.30
2018,07,18,15,13,22.40
2018,07,18,15,14,22.40
2018,07,18,15,15,22.30
2018,07,18,15,16,22.20
2018,07,18,15,17,22.10
2018,07,18,15,18,22.10
2018,07,18,15,19,22.00
2018,07,18,15,20,21.90
2018,07,18,15,21,21.90
2018,07,18,15,22,21.80
2018,07,18,15,23,21.80
2018,07,18,15,24,21.80
2018,07,18,15,25,21.90
2018,07,18,15,26,21.90
2018,07,18,15,27,22.00
2018,07,18,15,28,22.00
2018,07,18,15,29,22.10
2018,07,18,15,30,22.10
2018,07,18,15,31,22.10
2018,07,18,15,32,22.10
2018,07,18,15,33,22.20
2018,07,18,15,34,22.30
2018,07,18,15,35,22.30
2018,07,18,15,36,22.30
2018,07,18,15,37,22.30
2018,07,18,15,38,22.30
2018,07,18,15,39,22.30
2018,07,18,15,40,22.30
2018,07,18,15,41,22.40
2018,07,18,15,42,22.40
2018,07,18,15,43,22.50
2018,07,18,15,44,22.60
2018,07,18,15,45,22.70
2018,07,18,15,46,22.80
2018,07,18,15,47,22.80
2018,07,18,15,48,22.70
2018,07,18,15,49,22.70
2018,07,18,15,50,22.80
2018,07,18,15,51,22.80
2018,07,18,15,52,22.80
2018,07,18,15,53,22.80
2018,07,18,15,54,22.70
2018,07,18,15,55,22.80
2018,07,18,15,56,22.80
2018,07,18,15,57,22.80
2018,07,18,15,58,22.80
2018,07,18,15,59,22.80
2018,07,18,16,00,22.80
2018,07,18,16,01,22.90
2018,07,18,16,02,22.90
2018,07,18,16,03,22.80
2018,07,18,16,04,22.80
2018,07,18,16,05,22.70
2018,07,18,16,06,22.70
2018,07,18,16,07,22.60
2018,07,18,16,08,22.70
2018,07,18,16,09,22.80
2018,07,18,16,10,22.90
2018,07,18,16,11,22.90
2018,07,18,16,12,22.90
2018,07,18,16,13,22.90
2018,07,18,16,14,22.80
2018,07,18,16,15,22.70
2018,07,18,16,16,22.70
2018,07,18,16,17,22.70
2018,07,18,16,18,22.70
2018,07,18,16,19,22.60
2018,07,18,16,20,22.50
2018,07,18,16,21,22.50
2018,07,18,16,22,22.50
2018,07,18,16,23,22.40
2018,07,18,16,24,22.40
2018,07,18,16,25,22.40
2018,07,18,16,26,22.30
2018,07,18,16,27,22.30
2018,07,18,16,28,22.30
2018,07,18,16,29,22.30
2018,07,18,16,30,22.20
2018,07,18,16,31,22.20
2018,07,18,16,32,22.20
2018,07,18,16,33,22.30
2018,07,18,16,34,22.30
2018,07,18,16,35,22.30
2018,07,18,16,36,22.30
2018,07,18,16,37,22.30
2018,07,18,16,38,22.30
2018,07,18,16,39,22.30
2018,07,18,16,40,22.30
2018,07,18,16,41,22.30
2018,07,18,16,42,22.30
2018,07,18,16,43,22.30
2018,07,18,16,44,22.30
2018,07,18,16,45,22.30
2018,07,18,16,46,22.30
2018,07,18,16,47,22.30
2018,07,18,16,48,22.30
2018,07,18,16,49,22.30
2018,07,18,16,50,22.30
2018,07,18,16,51,22.30
2018,07,18,16,52,22.30
2018,07,18,16,53,22.40
2018,07,18,16,54,22.40
2018,07,18,16,55,22.50
2018,07,18,16,56,22.60
2018,07,18,16,57,22.60
2018,07,18,16,58,22.60
2018,07,18,16,59,22.60
2018,07,18,17,00,22.60
2018,07,18,17,01,22.60
2018,07,18,17,02,22.60
2018,07,18,17,03,22.60
2018,07,18,17,04,22.70
2018,07,18,17,05,22.70
2018,07,18,17,06,22.80
2018,07,18,17,07,22.80
2018,07,18,17,08,22.80
2018,07,18,17,09,22.80
2018,07,18,17,10,22.80
2018,07,18,17,11,22.80
2018,07,18,17,12,22.80
2018,07,18,17,13,22.90
2018,07,18,17,14,23.00
2018,07,18,17,15,23.00
2018,07,18,17,16,23.10
2018,07,18,17,17,23.20
2018,07,18,17,18,23.30
2018,07,18,17,19,23.40